"2010-06-03 00:00:00",167500,4.108,280.6,3.489,0.188,17.68,108.0284,19.83,20.75,29.4,0,110.9,13.25,20.65,242.6
"2010-06-03 00:00:30",167501,4.514,274.8,2.933,0.187,17.64,108.0269,19.83,20.76,29.8,0,110.9,13.25,20.65,236.8
"2010-06-03 00:01:00",167502,4.371,283.5,3.108,0.257,17.73,108.0252,19.82,20.75,31.43,0,110.9,13.25,20.65,245.5
"2010-06-03 00:01:30",167503,3.648,284.2,5.685,0.375,17.79,108.0172,19.8,20.74,31.83,0,110.9,13.24,20.62,246.2
"2010-06-03 00:02:00",167504,4.062,275.4,4.861,0.561,17.81,108.0114,19.79,20.75,31.35,0,110.9,13.24,20.61,237.4
"2010-06-03 00:02:30",167505,4.259,271.2,2.348,0.275,17.88,108.0102,19.79,20.72,31.69,0,110.9,13.24,20.61,233.2
"2010-06-03 00:03:00",167506,3.896,269,5.275,0.547,17.96,108.0056,19.77,20.71,32.29,0,110.9,13.25,20.60,231.0
"2010-06-03 00:03:30",167507,2.896,275.6,7.622,0.307,18,108.0001,19.76,20.7,32.9,0,110.9,13.25,20.58,237.6
"2010-06-03 00:04:00",167508,3.593,281.7,5.747,0.334,17.96,108.0008,19.76,20.7,32.06,0,110.9,13.25,20.58,243.7
"2010-06-03 00:04:30",167509,3.967,286.7,4.668,0.326,17.94,107.9996,19.76,20.71,29.95,0,110.9,13.25,20.58,248.7
"2010-06-03 00:05:00",167510,3.94,286.9,3.727,0.512,17.94,107.9986,19.76,20.69,30.29,0,110.9,13.25,20.58,248.9
"2010-06-03 00:05:30",167511,3.983,293.6,2.664,0.151,17.9,107.9989,19.76,20.7,31.42,0,110.9,13.25,20.58,255.6
"2010-06-03 00:06:00",167512,3.779,296.3,2.908,0.347,17.95,108.0015,19.76,20.71,31.51,0,110.9,13.25,20.58,258.3
"2010-06-03 00:06:30",167513,4.149,284.9,5.142,0.196,18.02,108.0037,19.77,20.7,31.62,0,110.9,13.25,20.59,246.9
"2010-06-03 00:07:00",167514,4.513,283.1,3.185,0.2,18.01,107.9989,19.76,20.71,31.43,0,110.9,13.25,20.58,245.1
"2010-06-03 00:07:30",167515,4.156,283.6,3.622,0.087,18.08,107.9986,19.76,20.7,31.57,0,110.9,13.25,20.58,245.6
"2010-06-03 00:08:00",167516,4.198,290.9,1.161,0.145,18.06,107.9986,19.76,20.7,31.6,0,110.9,13.25,20.58,252.9
"2010-06-03 00:08:30",167517,4.027,290.1,2.993,0.309,18.07,107.9986,19.76,20.71,31.61,0,110.9,13.25,20.58,252.1
"2010-06-03 00:09:00",167518,3.279,293.1,3.884,0.253,18.05,107.9986,19.76,20.7,31.52,0,110.9,13.25,20.58,255.1
"2010-06-03 00:09:30",167519,3.216,291.2,2.771,0.124,18.07,107.9986,19.76,20.71,31.09,0,110.9,13.25,20.58,253.2
"2010-06-03 00:10:00",167520,3.185,283.7,2.583,0.3,18.08,108,19.76,20.7,30.99,0,110.9,13.25,20.58,245.7
"2010-06-03 00:10:30",167521,3.303,288.9,3.205,0.242,18.03,108.0045,19.77,20.7,29.89,0,110.9,13.25,20.59,250.9
"2010-06-03 00:11:00",167522,3.151,295.4,2.506,0.137,18.09,108.0259,19.83,20.71,29.36,0,110.9,13.25,20.65,257.4
"2010-06-03 00:11:30",167523,2.816,288.8,4.399,0.325,18.1,108.0324,19.84,20.72,29.31,0,110.9,13.24,20.66,250.8
"2010-06-03 00:12:00",167524,2.55,295.1,4.77,0.192,18.1,108.0324,19.84,20.72,29.42,0,110.9,13.24,20.66,257.1
"2010-06-03 00:12:30",167525,2.725,301.5,2.392,0.138,18.1,108.0324,19.84,20.73,29.44,0,110.9,13.24,20.66,263.5
"2010-06-03 00:13:00",167526,2.712,295.1,7.379,0.212,18.06,108.0324,19.84,20.72,29.12,0,110.9,13.24,20.66,257.1
"2010-06-03 00:13:30",167527,2.012,285.7,3.634,0.221,17.99,108.0358,19.85,20.74,29.26,0,110.9,13.24,20.67,247.7
"2010-06-03 00:14:00",167528,2.002,286.7,5.249,0.098,17.91,108.038,19.86,20.75,29.32,0,110.9,13.24,20.68,248.7
"2010-06-03 00:14:30",167529,1.799,282.4,4.091,0.144,17.86,108.0391,19.86,20.75,29.88,0,110.9,13.24,20.68,244.4
"2010-06-03 00:15:00",167530,1.549,287.3,3.183,0.086,17.8,108.0349,19.85,20.75,29.49,0,110.9,13.24,20.67,249.3
"2010-06-03 00:15:30",167531,1.629,300.9,3.622,0.142,17.8,108.0372,19.86,20.74,29.75,0,110.9,13.24,20.68,262.9
"2010-06-03 00:16:00",167532,1.941,301.5,3.872,0.14,17.83,108.0327,19.84,20.75,30.36,0,110.9,13.24,20.66,263.5
"2010-06-03 00:16:30",167533,2.184,309.6,2.776,0.089,17.96,108.0324,19.84,20.74,29.36,0,110.9,13.24,20.66,271.6
"2010-06-03 00:17:00",167534,2.484,302.1,2.666,0.158,18.09,108.0327,19.84,20.74,29.96,0,110.9,13.24,20.66,264.1
"2010-06-03 00:17:30",167535,2.732,306.3,2.319,0.12,18.02,108.0324,19.84,20.74,30.8,0,110.9,13.24,20.66,268.3
"2010-06-03 00:18:00",167536,2.427,300.6,5.738,0.226,18.09,108.0324,19.84,20.74,31.23,0,110.9,13.24,20.66,262.6
"2010-06-03 00:18:30",167537,1.952,304.1,3.556,0.118,18.07,108.031,19.84,20.72,31.31,0,110.9,13.23,20.66,266.1
"2010-06-03 00:19:00",167538,2.049,296.9,3.938,0.173,18.18,108.0057,19.77,20.71,31.31,0,110.9,13.23,20.60,258.9
"2010-06-03 00:19:30",167539,2.582,293.8,4.312,0.232,18.13,107.9986,19.76,20.68,30.98,0,110.9,13.23,20.58,255.8
"2010-06-03 00:20:00",167540,2.225,301.1,4.676,0.117,18.15,107.9986,19.76,20.67,31.05,0,110.9,13.24,20.58,263.1
"2010-06-03 00:20:30",167541,2.62,300.9,4.611,0.263,18.2,107.9986,19.76,20.66,31.03,0,110.9,13.24,20.58,262.9
"2010-06-03 00:21:00",167542,3.416,295,5.553,0.501,18.28,107.9986,19.76,20.65,31.14,0,110.9,13.24,20.58,257.0
"2010-06-03 00:21:30",167543,3.59,301.2,4.904,0.223,18.36,107.9986,19.76,20.65,31.18,0,110.9,13.24,20.58,263.2
"2010-06-03 00:22:00",167544,3.27,294.6,9.53,0.19,18.39,107.9986,19.76,20.65,31.11,0,110.9,13.24,20.58,256.6
"2010-06-03 00:22:30",167545,2.672,287.5,4.727,0.354,18.4,107.9986,19.76,20.65,31.3,0,110.9,13.24,20.58,249.5
"2010-06-03 00:23:00",167546,2.872,298.6,3.07,0.235,18.39,107.9986,19.76,20.65,31.18,0,110.9,13.24,20.58,260.6
"2010-06-03 00:23:30",167547,3.266,300.8,3.079,0.368,18.41,107.9986,19.76,20.63,30.71,0,110.9,13.24,20.58,262.8
"2010-06-03 00:24:00",167548,3.605,303,4.694,0.266,18.38,107.9986,19.76,20.64,30.52,0,110.9,13.24,20.58,265.0
"2010-06-03 00:24:30",167549,3.677,305.7,3.08,0.136,18.32,107.9981,19.75,20.64,30.68,0,110.9,13.24,20.58,267.7
"2010-06-03 00:25:00",167550,3.474,304.6,3.569,0.169,18.34,107.9823,19.71,20.63,31.04,0,110.9,13.25,20.54,266.6
"2010-06-03 00:25:30",167551,3.204,309.8,6.538,0.308,18.39,107.9669,19.67,20.62,32.09,0,110.9,13.25,20.50,271.8
"2010-06-03 00:26:00",167552,3.274,300.7,5.373,0.243,18.28,107.967,19.68,20.6,31.68,0,110.8,13.25,20.50,262.7
"2010-06-03 00:26:30",167553,3.331,304.1,1.779,0.103,18.29,107.9749,19.7,20.6,31.16,0,110.9,13.25,20.52,266.1
"2010-06-03 00:27:00",167554,3.023,303.1,3.025,0.154,18.32,107.9722,19.69,20.58,31.36,0,110.9,13.25,20.51,265.1
"2010-06-03 00:27:30",167555,2.676,305.8,2.155,0.073,18.32,107.9589,19.65,20.57,31.24,0,110.9,13.25,20.47,267.8
"2010-06-03 00:28:00",167556,2.638,303.7,2.385,0.084,18.39,107.9576,19.65,20.55,31.47,0,110.8,13.25,20.47,265.7
"2010-06-03 00:28:30",167557,2.845,301.3,5.589,0.163,18.36,107.9579,19.65,20.55,31.61,0,110.8,13.25,20.47,263.3
"2010-06-03 00:29:00",167558,2.948,299.8,2.527,0.201,18.4,107.9582,19.65,20.52,31.47,0,110.8,13.25,20.47,261.8
"2010-06-03 00:29:30",167559,2.837,296.3,5.965,0.172,18.46,107.9565,19.65,20.51,31.34,0,110.8,13.24,20.47,258.3
"2010-06-03 00:30:00",167560,2.732,298.2,5.488,0.185,18.46,107.9486,19.63,20.5,31.38,0,110.8,13.25,20.45,260.2
"2010-06-03 00:30:30",167561,2.55,299.6,3.566,0.21,18.46,107.9429,19.61,20.5,31.58,0,110.8,13.25,20.43,261.6
"2010-06-03 00:31:00",167562,2.607,305.3,1.858,0.087,18.38,107.9345,19.59,20.49,31.43,0,110.8,13.25,20.41,267.3
"2010-06-03 00:31:30",167563,2.166,299.5,3.059,0.209,18.44,107.9314,19.58,20.48,31.21,0,110.8,13.24,20.40,261.5
"2010-06-03 00:32:00",167564,2.694,292.1,3.206,0.164,18.49,107.9317,19.58,20.48,31.19,0,110.8,13.24,20.40,254.1
"2010-06-03 00:32:30",167565,2.807,288.4,4.009,0.17,18.47,107.9332,19.59,20.48,31.21,0,110.8,13.24,20.41,250.4
"2010-06-03 00:33:00",167566,2.471,297.4,1.795,0.088,18.44,107.9332,19.59,20.48,30.55,0,110.8,13.24,20.41,259.4
"2010-06-03 00:33:30",167567,2.453,293.5,2.713,0.103,18.48,107.9366,19.6,20.46,30.49,0,110.8,13.24,20.42,255.5
"2010-06-03 00:34:00",167568,2.923,297.3,2.552,0.203,18.5,107.9398,19.61,20.47,29.99,0,110.8,13.24,20.43,259.3
"2010-06-03 00:34:30",167569,3.389,294.2,2.221,0.296,18.49,107.9456,19.62,20.48,29.72,0,110.8,13.24,20.44,256.2
"2010-06-03 00:35:00",167570,3.577,299,1.805,0.18,18.47,107.9467,19.62,20.47,29.52,0,110.8,13.24,20.44,261.0
"2010-06-03 00:35:30",167571,3.288,303.2,1.682,0.18,18.47,107.9369,19.6,20.47,30.07,0,110.8,13.24,20.42,265.2
"2010-06-03 00:36:00",167572,2.98,302.6,3.406,0.17,18.48,107.9338,19.59,20.45,30.32,0,110.8,13.24,20.41,264.6
"2010-06-03 00:36:30",167573,3.439,302,4.125,0.268,18.44,107.9338,19.59,20.47,31.14,0,110.8,13.24,20.41,264.0
"2010-06-03 00:37:00",167574,3.602,304.7,2.336,0.236,18.47,107.9279,19.57,20.44,31.51,0,110.8,13.24,20.40,266.7
"2010-06-03 00:37:30",167575,3.317,299.3,2.233,0.069,18.43,107.906,19.52,20.43,31.63,0,110.8,13.25,20.34,261.3
"2010-06-03 00:38:00",167576,3.18,296.2,2.754,0.082,18.56,107.9001,19.5,20.42,31.5,0,110.8,13.25,20.32,258.2
"2010-06-03 00:38:30",167577,3.281,292.1,2.902,0.205,18.52,107.9001,19.5,20.42,31.4,0,110.8,13.25,20.32,254.1
"2010-06-03 00:39:00",167578,3.381,293.7,1.255,0.072,18.68,107.9001,19.5,20.41,31.21,0,110.8,13.25,20.32,255.7
"2010-06-03 00:39:30",167579,3.537,292.5,1.523,0.142,18.6,107.9001,19.5,20.41,30.96,0,110.8,13.25,20.32,254.5
"2010-06-03 00:40:00",167580,3.781,288,2.136,0.125,18.58,107.9006,19.5,20.42,30.81,0,110.8,13.25,20.32,250.0
"2010-06-03 00:40:30",167581,3.885,294.3,1.805,0.118,18.6,107.9018,19.51,20.41,30.35,0,110.8,13.25,20.33,256.3
"2010-06-03 00:41:00",167582,4.291,294.4,1.251,0.138,18.5,107.9065,19.52,20.44,30.18,0,110.8,13.25,20.34,256.4
"2010-06-03 00:41:30",167583,4.591,295.5,1.605,0.096,18.64,107.904,19.51,20.43,30.48,0,110.8,13.25,20.33,257.5
"2010-06-03 00:42:00",167584,4.793,295.1,1.109,0.09,18.69,107.9058,19.52,20.43,29.97,0,110.8,13.25,20.34,257.1
"2010-06-03 00:42:30",167585,4.538,296.2,1.418,0.164,18.68,107.9106,19.53,20.43,30.16,0,110.8,13.25,20.35,258.2
"2010-06-03 00:43:00",167586,4.897,296.8,3.234,0.121,18.69,107.913,19.54,20.43,30.19,0,110.8,13.25,20.36,258.8
"2010-06-03 00:43:30",167587,5.037,296.4,1.606,0.108,18.64,107.917,19.55,20.43,30.13,0,110.8,13.25,20.37,258.4
"2010-06-03 00:44:00",167588,4.698,297.2,1.846,0.146,18.68,107.9242,19.57,20.45,30.07,0,110.8,13.25,20.39,259.2
"2010-06-03 00:44:30",167589,4.665,298.4,4.029,0.117,18.72,107.9393,19.6,20.45,29.89,0,110.8,13.25,20.42,260.4
"2010-06-03 00:45:00",167590,4.792,293.6,3.017,0.408,18.67,107.9417,19.61,20.47,30.42,0,110.8,13.25,20.43,255.6
"2010-06-03 00:45:30",167591,5.229,293.9,1.231,0.147,18.71,107.9444,19.62,20.46,29.94,0,110.8,13.25,20.44,255.9
"2010-06-03 00:46:00",167592,5.123,294.6,1.08,0.109,18.76,107.9527,19.64,20.49,29.46,0,110.8,13.25,20.46,256.6
"2010-06-03 00:46:30",167593,5.027,296.1,2.54,0.151,18.73,107.9578,19.65,20.5,29.28,0,110.8,13.25,20.47,258.1
"2010-06-03 00:47:00",167594,5.174,297.3,2.035,0.094,18.73,107.9603,19.66,20.51,28.9,0,110.8,13.26,20.48,259.3
"2010-06-03 00:47:30",167595,5.056,300.2,1.03,0.098,18.84,107.9646,19.67,20.52,29.08,0,110.8,13.26,20.49,262.2
"2010-06-03 00:48:00",167596,5.315,299.6,1.216,0.185,18.85,107.9809,19.71,20.53,29.11,0,110.8,13.26,20.53,261.6
"2010-06-03 00:48:30",167597,5.881,299.6,1.484,0.18,18.69,107.9825,19.71,20.56,29.49,0,110.7,13.25,20.54,261.6
"2010-06-03 00:49:00",167598,5.598,301,1.013,0.069,18.76,107.988,19.73,20.55,29.06,0,110.7,13.25,20.55,263.0
"2010-06-03 00:49:30",167599,6.103,302.2,1.374,0.319,18.85,107.9934,19.74,20.57,29.22,0,110.7,13.25,20.56,264.2
"2010-06-03 00:50:00",167600,6.547,300.8,1.395,0.095,18.82,108.0035,19.77,20.58,29.13,0,110.8,13.25,20.59,262.8
"2010-06-03 00:50:30",167601,6.204,301,1.092,0.126,18.95,108.004,19.77,20.6,28.87,0,110.7,13.25,20.59,263.0
"2010-06-03 00:51:00",167602,6.447,302.4,1.304,0.213,18.87,108.004,19.77,20.62,28.91,0,110.7,13.26,20.59,264.4
"2010-06-03 00:51:30",167603,6.661,302.7,1.819,0.153,18.86,108.004,19.77,20.63,28.92,0,110.7,13.26,20.59,264.7
"2010-06-03 00:52:00",167604,6.659,305.6,2.008,0.077,18.9,108.004,19.77,20.66,28.9,0,110.7,13.26,20.59,267.6
"2010-06-03 00:52:30",167605,6.701,300.1,1.379,0.169,18.88,108.0114,19.79,20.67,28.78,0,110.7,13.26,20.61,262.1
"2010-06-03 00:53:00",167606,6.766,299.3,1.878,0.287,18.93,108.0294,19.84,20.67,28.71,0,110.7,13.26,20.66,261.3
"2010-06-03 00:53:30",167607,6.179,303.1,2.447,0.261,18.93,108.0375,19.86,20.69,28.69,0,110.7,13.26,20.68,265.1
"2010-06-03 00:54:00",167608,6.5,305,2.104,0.147,18.91,108.0381,19.86,20.72,28.74,0,110.7,13.27,20.68,267.0
"2010-06-03 00:54:30",167609,7.012,303.5,0.864,0.164,18.87,108.0393,19.86,20.73,28.78,0,110.7,13.27,20.68,265.5
"2010-06-03 00:55:00",167610,7.563,306.5,2.47,0.315,18.92,108.0427,19.87,20.74,28.88,0,110.7,13.27,20.69,268.5
"2010-06-03 00:55:30",167611,8.44,302.3,0.931,0.237,18.91,108.0503,19.89,20.74,28.81,0,110.7,13.27,20.71,264.3
"2010-06-03 00:56:00",167612,8.21,299.8,1.711,0.198,18.89,108.0585,19.91,20.75,28.79,0,110.7,13.27,20.73,261.8
"2010-06-03 00:56:30",167613,7.575,295.5,1.538,0.35,18.88,108.0573,19.91,20.75,29.06,0,110.7,13.28,20.73,257.5
"2010-06-03 00:57:00",167614,6.926,297.6,1.571,0.203,18.82,108.0603,19.91,20.77,29.3,0,110.7,13.28,20.74,259.6
"2010-06-03 00:57:30",167615,7.467,295.7,1.981,0.178,18.81,108.0615,19.92,20.76,29.32,0,110.7,13.28,20.74,257.7
"2010-06-03 00:58:00",167616,7.383,295.6,1.666,0.141,18.79,108.0576,19.91,20.75,29.57,0,110.7,13.28,20.73,257.6
"2010-06-03 00:58:30",167617,7.337,294,1.431,0.127,18.8,108.0438,19.87,20.76,29.61,0,110.7,13.28,20.69,256.0
"2010-06-03 00:59:00",167618,7.765,296.8,2.363,0.225,18.82,108.0317,19.84,20.76,29.84,0,110.7,13.28,20.66,258.8
"2010-06-03 00:59:30",167619,8.16,298.1,1.22,0.175,18.92,108.0308,19.84,20.74,29.56,0,110.7,13.28,20.66,260.1
"2010-06-03 01:00:00",167620,8.32,297.4,1.043,0.174,18.91,108.032,19.84,20.75,29.5,0,110.7,13.28,20.66,259.4
"2010-06-03 01:00:30",167621,8.26,296.8,1.253,0.184,18.79,108.0338,19.85,20.75,29.63,0,110.7,13.28,20.67,258.8
"2010-06-03 01:01:00",167622,7.875,297.4,1.707,0.214,18.62,108.041,19.86,20.77,29.92,0,110.7,13.28,20.69,259.4
"2010-06-03 01:01:30",167623,7.588,298.2,1.552,0.115,18.61,108.0481,19.88,20.75,30.06,0,110.7,13.28,20.70,260.2
"2010-06-03 01:02:00",167624,7.36,302,1.067,0.173,18.82,108.0587,19.91,20.76,29.32,0,110.7,13.28,20.73,264.0
"2010-06-03 01:02:30",167625,7.362,298.8,1.331,0.128,18.79,108.0673,19.93,20.78,29.42,0,110.7,13.28,20.75,260.8
"2010-06-03 01:03:00",167626,7.027,300.3,1.198,0.224,18.82,108.0667,19.93,20.79,29.57,0,110.7,13.28,20.75,262.3
"2010-06-03 01:03:30",167627,6.868,298.6,1.776,0.151,18.84,108.0658,19.93,20.8,29.48,0,110.7,13.28,20.75,260.6
"2010-06-03 01:04:00",167628,6.564,300.3,2.592,0.234,18.87,108.0664,19.93,20.8,29.34,0,110.7,13.28,20.75,262.3
"2010-06-03 01:04:30",167629,6.124,301.3,2.27,0.31,18.8,108.0688,19.94,20.81,29.54,0,110.7,13.28,20.76,263.3
"2010-06-03 01:05:00",167630,6.144,300.4,3.761,0.093,18.83,108.0686,19.94,20.81,29.54,0,110.7,13.28,20.76,262.4
"2010-06-03 01:05:30",167631,5.835,298.7,2.156,0.242,18.84,108.071,19.94,20.82,29.42,0,110.7,13.28,20.76,260.7
"2010-06-03 01:06:00",167632,6.024,295.1,2.928,0.201,18.84,108.0719,19.94,20.81,29.41,0,110.7,13.27,20.77,257.1
"2010-06-03 01:06:30",167633,6.506,295,1.45,0.178,18.91,108.0722,19.94,20.81,29.58,0,110.7,13.27,20.77,257.0
"2010-06-03 01:07:00",167634,6.277,298.1,2.139,0.165,18.85,108.0722,19.94,20.8,29.53,0,110.7,13.27,20.77,260.1
"2010-06-03 01:07:30",167635,5.768,305.1,4.291,0.368,18.82,108.0716,19.94,20.8,29.77,0,110.7,13.27,20.76,267.1
"2010-06-03 01:08:00",167636,5.028,307.1,2.122,0.396,18.89,108.0735,19.95,20.79,29.38,0,110.7,13.27,20.77,269.1
"2010-06-03 01:08:30",167637,4.149,310.9,3.409,0.393,18.68,108.0529,19.9,20.79,30.51,0,110.7,13.27,20.72,272.9
"2010-06-03 01:09:00",167638,3.309,311.2,4.562,0.276,18.66,108.0397,19.86,20.76,30.94,0,110.7,13.27,20.68,273.2
"2010-06-03 01:09:30",167639,3.282,314.6,1.683,0.187,18.61,108.0115,19.79,20.72,31.5,0,110.7,13.27,20.61,276.6
"2010-06-03 01:10:00",167640,3.369,302.7,3.97,0.188,18.56,107.9879,19.73,20.69,31.97,0,110.7,13.27,20.55,264.7
"2010-06-03 01:10:30",167641,4.316,316.5,8.97,0.46,18.79,107.973,19.69,20.63,30.58,0,110.7,13.27,20.51,278.5
"2010-06-03 01:11:00",167642,4.472,324.4,2.53,0.199,19.04,107.9828,19.72,20.64,28.92,0,110.7,13.28,20.54,286.4
"2010-06-03 01:11:30",167643,4.092,325.6,2.368,0.373,18.97,108.007,19.78,20.68,28.51,0,110.7,13.28,20.60,287.6
"2010-06-03 01:12:00",167644,3.767,325.3,3.442,0.235,18.95,108.0296,19.84,20.69,28.51,0,110.7,13.29,20.66,287.3
"2010-06-03 01:12:30",167645,3.819,334.1,2.036,0.13,18.96,108.0405,19.86,20.71,28.57,0,110.7,13.29,20.68,296.1
"2010-06-03 01:13:00",167646,3.428,330.2,3.319,0.164,18.95,108.0422,19.87,20.75,28.59,0,110.7,13.3,20.69,292.2
"2010-06-03 01:13:30",167647,3.543,323.7,2.546,0.349,18.95,108.0631,19.92,20.76,28.51,0,110.7,13.3,20.74,285.7
"2010-06-03 01:14:00",167648,3.039,329.7,4.08,0.176,18.98,108.0735,19.95,20.78,28.34,0,110.7,13.3,20.77,291.7
"2010-06-03 01:14:30",167649,3.127,327.9,3.376,0.378,18.93,108.0743,19.95,20.8,28.27,0,110.7,13.3,20.77,289.9
"2010-06-03 01:15:00",167650,4.182,322.4,1.965,0.268,18.94,108.0743,19.95,20.79,28.27,0,110.7,13.3,20.77,284.4
"2010-06-03 01:15:30",167651,4.62,318.4,2.155,0.178,18.86,108.0743,19.95,20.8,28.92,0,110.7,13.3,20.77,280.4
"2010-06-03 01:16:00",167652,4.845,316.9,1.563,0.094,18.92,108.0743,19.95,20.81,29.27,0,110.7,13.3,20.77,278.9
"2010-06-03 01:16:30",167653,5.073,315.7,1.232,0.147,18.89,108.0732,19.95,20.79,29.43,0,110.7,13.29,20.77,277.7
"2010-06-03 01:17:00",167654,5.44,315.8,1.037,0.244,18.87,108.0631,19.92,20.79,29.74,0,110.7,13.29,20.74,277.8
"2010-06-03 01:17:30",167655,5.626,315.1,1.836,0.14,18.81,108.0434,19.87,20.78,29.76,0,110.7,13.29,20.69,277.1
"2010-06-03 01:18:00",167656,5.427,314.9,1.193,0.127,18.9,108.0405,19.86,20.78,29.89,0,110.7,13.29,20.68,276.9
"2010-06-03 01:18:30",167657,5.252,313.1,1.316,0.054,18.96,108.0405,19.86,20.77,29.86,0,110.7,13.29,20.68,275.1
"2010-06-03 01:19:00",167658,5.002,310.5,1.688,0.166,18.92,108.0405,19.86,20.76,29.86,0,110.7,13.29,20.68,272.5
"2010-06-03 01:19:30",167659,4.88,307.5,1.707,0.202,18.92,108.0394,19.86,20.77,30.23,0,110.7,13.29,20.68,269.5
"2010-06-03 01:20:00",167660,4.565,310,1.34,0.186,18.89,108.0225,19.82,20.74,30.29,0,110.7,13.3,20.64,272.0
"2010-06-03 01:20:30",167661,4.646,308.5,3.238,0.233,18.85,108.009,19.78,20.73,30.37,0,110.7,13.3,20.60,270.5
"2010-06-03 01:21:00",167662,4.621,309.9,0.909,0.454,18.86,108.0068,19.78,20.72,30.38,0,110.7,13.3,20.60,271.9
"2010-06-03 01:21:30",167663,4.948,311.2,2.068,0.217,18.87,108.0068,19.78,20.69,30.3,0,110.7,13.3,20.60,273.2
"2010-06-03 01:22:00",167664,4.511,310.8,1.876,0.145,18.86,108.0068,19.78,20.7,30.46,0,110.7,13.3,20.60,272.8
"2010-06-03 01:22:30",167665,4.468,313.6,1.688,0.096,18.77,108.0017,19.76,20.68,30.53,0,110.7,13.29,20.58,275.6
"2010-06-03 01:23:00",167666,4.285,313.1,1.239,0.202,18.9,107.9907,19.74,20.68,30.56,0,110.7,13.29,20.56,275.1
"2010-06-03 01:23:30",167667,3.889,313.8,3.583,0.13,18.85,107.9744,19.69,20.66,30.72,0,110.7,13.29,20.51,275.8
"2010-06-03 01:24:00",167668,4.011,313.6,1.582,0.186,18.79,107.973,19.69,20.65,30.81,0,110.7,13.29,20.51,275.6
"2010-06-03 01:24:30",167669,4.498,310.5,1.675,0.138,18.97,107.973,19.69,20.63,30.25,0,110.7,13.29,20.51,272.5
"2010-06-03 01:25:00",167670,4.422,310.4,1.734,0.115,18.83,107.9733,19.69,20.63,30.37,0,110.7,13.29,20.51,272.4
"2010-06-03 01:25:30",167671,4.142,308.1,0.927,0.129,18.97,107.9742,19.69,20.63,30.34,0,110.7,13.29,20.51,270.1
"2010-06-03 01:26:00",167672,3.999,307.7,1.881,0.13,18.91,107.9739,19.69,20.62,30.51,0,110.7,13.29,20.51,269.7
"2010-06-03 01:26:30",167673,3.631,305.6,2.127,0.146,18.91,107.9745,19.69,20.61,30.42,0,110.7,13.29,20.51,267.6
"2010-06-03 01:27:00",167674,3.306,309,2.023,0.138,18.88,107.9739,19.69,20.61,30.49,0,110.7,13.29,20.51,271.0
"2010-06-03 01:27:30",167675,3.384,312.4,2.109,0.122,18.89,107.9751,19.7,20.59,30.46,0,110.7,13.3,20.52,274.4
"2010-06-03 01:28:00",167676,2.965,309.1,1.387,0.228,18.9,107.9696,19.68,20.59,30.74,0,110.7,13.3,20.50,271.1
"2010-06-03 01:28:30",167677,2.893,309.4,1.72,0.127,18.98,107.969,19.68,20.59,30.44,0,110.7,13.3,20.50,271.4
"2010-06-03 01:29:00",167678,2.61,307.7,1.807,0.061,18.85,107.969,19.68,20.58,30.38,0,110.7,13.3,20.50,269.7
"2010-06-03 01:29:30",167679,2.632,309,1.577,0.164,18.95,107.9746,19.69,20.59,30.06,0,110.7,13.3,20.52,271.0
"2010-06-03 01:30:00",167680,2.751,308.1,1.402,0.173,18.94,107.9816,19.71,20.6,30.08,0,110.7,13.3,20.53,270.1
"2010-06-03 01:30:30",167681,2.706,304.1,1.138,0.058,18.87,107.9852,19.72,20.58,30.13,0,110.7,13.3,20.54,266.1
"2010-06-03 01:31:00",167682,2.801,304.5,1.161,0.065,18.77,107.9833,19.72,20.59,30.32,0,110.7,13.3,20.54,266.5
"2010-06-03 01:31:30",167683,2.733,303,1.107,0.069,18.83,107.9806,19.71,20.58,30.34,0,110.7,13.3,20.53,265.0
"2010-06-03 01:32:00",167684,2.744,302.1,0.941,0.061,18.89,107.9777,19.7,20.58,30.42,0,110.7,13.3,20.52,264.1
"2010-06-03 01:32:30",167685,2.659,302.5,0.594,0.088,18.94,107.9745,19.69,20.57,30.53,0,110.7,13.3,20.51,264.5
"2010-06-03 01:33:00",167686,2.599,301.1,1.069,0.081,18.98,107.965,19.67,20.56,30.72,0,110.7,13.3,20.49,263.1
"2010-06-03 01:33:30",167687,2.459,299.9,1.203,0.044,18.9,107.9571,19.65,20.57,30.66,0,110.7,13.3,20.47,261.9
"2010-06-03 01:34:00",167688,2.273,299.6,1.293,0.075,18.78,107.9602,19.66,20.55,30.79,0,110.7,13.3,20.48,261.6
"2010-06-03 01:34:30",167689,2.436,298.1,1.189,0.076,18.72,107.962,19.66,20.54,31.17,0,110.7,13.29,20.48,260.1
"2010-06-03 01:35:00",167690,2.588,297.6,1.162,0.052,18.78,107.9594,19.66,20.52,31.51,0,110.7,13.3,20.48,259.6
"2010-06-03 01:35:30",167691,2.819,298,1.052,0.109,18.81,107.9321,19.59,20.51,31.76,0,110.7,13.3,20.41,260.0
"2010-06-03 01:36:00",167692,2.918,297.4,0.881,0.047,18.77,107.9282,19.58,20.47,32.11,0,110.7,13.3,20.40,259.4
"2010-06-03 01:36:30",167693,2.962,298.2,0.901,0.05,18.9,107.9231,19.56,20.45,31.75,0,110.7,13.29,20.38,260.2
"2010-06-03 01:37:00",167694,3.016,301.4,2.304,0.093,18.86,107.923,19.56,20.45,31.2,0,110.7,13.29,20.38,263.4
"2010-06-03 01:37:30",167695,3.62,303.1,3.856,0.185,19.09,107.9315,19.58,20.45,30.14,0,110.7,13.29,20.40,265.1
"2010-06-03 01:38:00",167696,3.66,302.7,0.584,0.081,19.13,107.9488,19.63,20.47,29.83,0,110.7,13.29,20.45,264.7
"2010-06-03 01:38:30",167697,3.313,301.1,1.515,0.163,19.09,107.9671,19.68,20.5,29.47,0,110.7,13.29,20.50,263.1
"2010-06-03 01:39:00",167698,3.216,300.1,2.333,0.111,19.14,107.995,19.75,20.54,29.36,0,110.7,13.29,20.57,262.1
"2010-06-03 01:39:30",167699,3.084,297.5,2.269,0.191,19.19,108.0023,19.77,20.57,28.77,0,110.7,13.28,20.59,259.5
"2010-06-03 01:40:00",167700,2.871,299.6,0.914,0.096,19,108.0283,19.83,20.61,29.28,0,110.7,13.28,20.65,261.6
"2010-06-03 01:40:30",167701,2.814,300.2,1.235,0.135,19,108.03,19.84,20.62,29.97,0,110.7,13.28,20.66,262.2
"2010-06-03 01:41:00",167702,2.651,300.1,0.944,0.13,18.95,108.0105,19.79,20.63,30.15,0,110.7,13.28,20.61,262.1
"2010-06-03 01:41:30",167703,2.454,297.6,1.584,0.072,18.76,108.0012,19.76,20.6,30.92,0,110.7,13.28,20.58,259.6
"2010-06-03 01:42:00",167704,2.596,293,0.954,0.054,18.77,107.9974,19.75,20.6,31.12,0,110.7,13.28,20.57,255.0
"2010-06-03 01:42:30",167705,2.891,289.8,2.162,0.22,18.79,107.9739,19.69,20.58,31.21,0,110.7,13.28,20.51,251.8
"2010-06-03 01:43:00",167706,3.448,292.8,1.36,0.092,18.85,107.9714,19.69,20.56,31.24,0,110.7,13.28,20.51,254.8
"2010-06-03 01:43:30",167707,3.363,289.7,3.374,0.107,18.81,107.9701,19.68,20.56,31.17,0,110.7,13.28,20.50,251.7
"2010-06-03 01:44:00",167708,3.129,287.9,2.403,0.115,18.78,107.9501,19.63,20.52,31.47,0,110.7,13.28,20.45,249.9
"2010-06-03 01:44:30",167709,2.945,288,0.878,0.067,18.85,107.9388,19.6,20.52,31.38,0,110.7,13.29,20.42,250.0
"2010-06-03 01:45:00",167710,3.041,289.5,2.104,0.062,18.77,107.941,19.61,20.48,30.98,0,110.7,13.29,20.43,251.5
"2010-06-03 01:45:30",167711,3.137,294.1,1.657,0.101,18.88,107.9403,19.61,20.49,30.91,0,110.7,13.3,20.43,256.1
"2010-06-03 01:46:00",167712,3.075,292.5,1.694,0.089,18.78,107.9413,19.61,20.48,30.82,0,110.7,13.3,20.43,254.5
"2010-06-03 01:46:30",167713,2.583,287.5,2.071,0.27,18.89,107.9396,19.6,20.46,30.7,0,110.7,13.3,20.43,249.5
"2010-06-03 01:47:00",167714,2.19,289.4,1.824,0.172,18.97,107.9407,19.61,20.45,30.63,0,110.7,13.3,20.43,251.4
"2010-06-03 01:47:30",167715,1.974,284.9,4.401,0.058,18.9,107.9407,19.61,20.45,30.55,0,110.7,13.3,20.43,246.9